PST,Max TemperatureF,Mean TemperatureF,Min TemperatureF,Max Dew PointF,MeanDew PointF,Min DewpointF,Max Humidity, Mean Humidity, Min Humidity, Max Sea Level PressureIn, Mean Sea Level PressureIn, Min Sea Level PressureIn, Max VisibilityMiles, Mean VisibilityMiles, Min VisibilityMiles, Max Wind SpeedMPH, Mean Wind SpeedMPH, Max Gust SpeedMPH,PrecipitationIn, CloudCover, Events, WindDirDegrees
2012-12-1,79,67,55,53,49,46,77,57,32,30.13,30.07,30.02,10,10,10,9,5,,0.00,2,,274
2012-12-2,80,66,52,52,48,44,74,53,32,30.09,30.04,30.00,10,10,10,15,4,,0.00,0,,225
2012-12-3,81,70,59,54,49,45,67,52,35,30.18,30.10,30.05,10,10,10,8,4,,0.00,2,,269
2012-12-4,80,66,53,50,47,42,72,54,34,30.27,30.18,30.14,10,10,10,7,4,,0.00,2,,270
2012-12-5,80,66,51,49,45,42,74,52,31,30.14,30.04,29.95,10,10,10,7,3,,0.00,2,,317
2012-12-6,78,64,51,49,45,40,74,53,31,29.95,29.90,29.84,10,10,10,6,3,,0.00,1,,233
2012-12-7,81,66,50,44,38,29,71,44,15,29.99,29.93,29.90,10,10,10,8,4,,0.00,0,,279
2012-12-8,77,62,46,37,33,24,54,40,14,30.00,29.94,29.89,10,10,10,9,5,,0.00,0,,256
2012-12-9,78,60,42,38,31,24,60,38,14,30.21,30.06,29.96,10,10,10,9,4,,0.00,0,,273
2012-12-10,70,56,42,30,25,21,55,32,16,30.27,30.17,30.09,10,10,10,9,5,,0.00,0,,247
2012-12-11,73,58,42,39,30,21,58,39,18,30.13,30.05,29.98,10,10,10,8,4,,0.00,0,,175
2012-12-12,73,56,39,46,38,29,68,50,35,29.99,29.92,29.85,10,10,10,15,4,21,0.00,2,,163
2012-12-13,64,57,50,54,49,42,100,81,56,29.86,29.78,29.69,10,10,10,15,7,,0.00,5,Rain,288
2012-12-14,62,55,48,43,41,38,74,60,41,30.01,29.92,29.76,10,10,10,20,12,28,0.00,4,Rain,234
2012-12-15,57,52,48,50,47,43,94,83,70,30.11,30.02,29.97,10,9,2,10,4,,0.00,5,Rain,356
2012-12-16,64,55,46,51,44,39,81,65,46,30.20,30.15,30.10,10,10,10,14,5,,0.00,3,,126
2012-12-17,66,56,46,50,48,45,93,80,54,30.20,30.11,30.00,10,10,10,8,3,,0.00,1,,2
2012-12-18,68,58,48,53,44,23,96,67,31,29.98,29.89,29.79,10,10,10,32,8,41,0.00,3,,209
2012-12-19,60,48,37,26,21,12,59,35,16,30.42,30.25,29.95,10,10,10,23,12,32,0.00,0,,310
2012-12-20,59,46,32,26,22,15,69,45,18,30.43,30.32,30.22,10,10,10,10,6,,0.00,1,,287
2012-12-21,62,48,34,34,26,20,64,47,21,30.22,30.16,30.11,10,10,10,8,6,,0.00,3,,285
2012-12-22,64,50,37,33,30,26,68,51,25,30.18,30.13,30.10,10,10,10,7,4,,0.00,1,,256
2012-12-23,68,52,37,44,38,29,76,57,39,30.20,30.13,30.08,10,10,10,12,4,,0.00,0,,232
2012-12-24,73,62,48,49,41,36,61,46,29,30.10,30.02,29.90,10,9,2,23,15,30,0.00,1,,263
2012-12-25,62,52,42,38,27,7,79,45,11,30.24,30.13,30.03,10,10,10,8,4,,0.00,0,,184
2012-12-26,68,52,37,39,31,23,65,46,24,30.02,29.95,29.89,10,10,10,21,7,30,0.00,1,,231
2012-12-27,64,55,46,38,34,27,68,48,25,30.13,30.01,29.94,10,10,10,14,7,,0.00,2,,285
2012-12-28,62,50,37,34,28,23,76,49,24,30.25,30.18,30.14,10,10,10,8,4,,0.00,0,,250
2012-12-29,62,50,37,35,28,25,70,48,28,30.16,30.08,29.99,10,10,10,8,5,,0.00,2,,216
2012-12-30,61,50,39,43,37,31,89,63,32,30.08,29.99,29.89,10,10,10,23,7,34,0.03,4,Rain,268
2012-12-31,60,48,37,40,32,24,89,61,25,30.30,30.22,30.09,10,10,10,8,5,,0.00,0,,255